Kodiak, AK

12:35 AM AKST on December 18, 2017 (GMT -0900)
Kodiak

Weather History for PADQ - August, 2014

Change the Weather History Date:

Thursday, August 28, 2014

  Actual Average Record
Temperature  
Mean Temperature 54 °F 54 °F  
Max Temperature 59 °F 60 °F 80 °F (1930)
Min Temperature 49 °F 48 °F 36 °F (1994)
Degree Days  
Heating Degree Days 11 11  
Month to date heating degree days 228 270  
Since 1 June heating degree days 890 1058  
Since 1 July heating degree days 468 597  
Cooling Degree Days 0 0  
Month to date cooling degree days 0 0  
Year to date cooling degree days 4 1  
Since 1 June cooling degree days 0 1  
Growing Degree Days 6 (Base 50)    
Moisture  
Dew Point 51 °F    
Average Humidity 0    
Maximum Humidity 0    
Minimum Humidity 0    
Precipitation  
Precipitation 0.01 in 0.16 in 2.46 in (1970)
Month to date precipitation 6.90 4.04  
Year to date precipitation 49.23 46.27  
Snow  
Snow 0.00 in 0.00 in - ()
Month to date snowfall 0.0 0.0  
Since 1 June snowfall 0.0 0.0  
Since 1 July snowfall 0.0 0.0  
Snow Depth 0.00 in    
Sea Level Pressure  
Sea Level Pressure 29.56 in    
Wind  
Wind Speed 9 mph (WNW)    
Max Wind Speed 18 mph    
Max Gust Speed 29 mph    
Visibility 8 miles    
Events Rain    
T = Trace of Precipitation, MM = Missing Value Source: NWS Daily Summary

Daily Weather History Graph

Daily Weather History Graph

Search for Another Location

Airport or City:

Trip Planner

Search our weather history database for the weather conditions in past years. The results will help you decide how hot, cold, wet, or windy it might be!

Date:

Astronomy

Aug. 28, 2014 Rise Set
Actual Time 7:02 AM AKDT 9:18 PM AKDT
Civil Twilight 6:19 AM AKDT 10:00 PM AKDT
Nautical Twilight 5:24 AM AKDT 10:54 PM AKDT
Astronomical Twilight 4:15 AM AKDT 12:02 AM AKDT
Moon 10:52 AM AKDT (8/28) 9:56 PM AKDT (8/28)
Length of Visible Light 15h 40m
Length of Day
14h 15m
Waxing Crescent, 9% of the Moon is Illuminated
Aug 28
Waxing Crescent
Sep 2
First Quarter
Sep 8
Full
Sep 15
Last Quarter
Sep 23
New

Hourly Weather History & Observations

Time (AKDT) Temp. Dew Point Humidity Pressure Visibility Wind Dir Wind Speed Gust Speed Precip Events Conditions
12:32 AM 55.4 °F 53.6 °F 94% 29.46 in 10.0 mi SSW 3.5 mph - 0.01 in   Overcast
12:53 AM 55.0 °F 53.1 °F 93% 29.47 in 4.0 mi WNW 6.9 mph - 0.01 in Rain Light Rain
1:53 AM 55.0 °F 52.0 °F 89% 29.47 in 4.0 mi NW 5.8 mph - 0.01 in Rain Light Rain
2:53 AM 54.0 °F 52.0 °F 93% 29.48 in 4.0 mi NW 8.1 mph - 0.00 in Rain Light Rain
3:42 AM 53.6 °F 51.8 °F 94% 29.48 in 10.0 mi WNW 9.2 mph - 0.00 in Rain Light Rain
3:53 AM 54.0 °F 52.0 °F 93% 29.48 in 10.0 mi WNW 8.1 mph - 0.00 in   Overcast
4:53 AM 54.0 °F 52.0 °F 93% 29.48 in 10.0 mi NW 6.9 mph - N/A   Overcast
5:53 AM 54.0 °F 51.1 °F 90% 29.48 in 10.0 mi NW 5.8 mph - N/A   Overcast
6:39 AM 53.6 °F 51.8 °F 94% 29.48 in 10.0 mi NNW 5.8 mph - N/A   Mostly Cloudy
6:53 AM 53.6 °F 51.8 °F 94% 29.49 in 10.0 mi NW 5.8 mph - N/A   Mostly Cloudy
7:53 AM 55.9 °F 52.0 °F 87% 29.50 in 10.0 mi NW 10.4 mph - N/A   Mostly Cloudy
8:53 AM 55.0 °F 51.1 °F 86% 29.52 in 6.0 mi WNW 12.7 mph - 0.00 in Rain Light Rain
9:53 AM 55.0 °F 51.1 °F 86% 29.54 in 8.0 mi WNW 12.7 mph - N/A   Overcast
10:53 AM 55.0 °F 52.0 °F 89% 29.55 in 5.0 mi WNW 11.5 mph - 0.00 in   Overcast
11:53 AM 55.0 °F 52.0 °F 89% 29.57 in 7.0 mi NW 10.4 mph - 0.01 in Rain Light Rain
12:53 PM 55.9 °F 51.1 °F 84% 29.58 in 9.0 mi WNW 12.7 mph 20.7 mph 0.00 in   Overcast
1:53 PM 59.0 °F 52.0 °F 78% 29.58 in 7.0 mi WNW 15.0 mph 24.2 mph N/A   Mostly Cloudy
2:53 PM 57.9 °F 52.0 °F 81% 29.59 in 7.0 mi WNW 15.0 mph 24.2 mph N/A   Mostly Cloudy
3:53 PM 57.0 °F 51.1 °F 81% 29.61 in 6.0 mi WNW 17.3 mph 23.0 mph 0.00 in   Haze
4:53 PM 55.0 °F 51.1 °F 86% 29.62 in 7.0 mi WNW 15.0 mph - N/A   Mostly Cloudy
5:07 PM 55.4 °F 51.8 °F 88% 29.62 in 7.0 mi WNW 12.7 mph 20.7 mph N/A   Overcast
5:53 PM 55.9 °F 50.0 °F 80% 29.63 in 10.0 mi WNW 9.2 mph - N/A   Overcast
6:53 PM 57.0 °F 48.9 °F 74% 29.64 in 10.0 mi WNW 11.5 mph 20.7 mph N/A   Mostly Cloudy
7:53 PM 55.9 °F 48.9 °F 77% 29.64 in 10.0 mi WNW 9.2 mph - N/A   Overcast
8:53 PM 55.9 °F 48.9 °F 77% 29.65 in 10.0 mi West 5.8 mph - N/A   Overcast
9:53 PM 55.9 °F 48.9 °F 77% 29.65 in 10.0 mi WNW 5.8 mph - N/A   Mostly Cloudy
10:53 PM 55.0 °F 48.0 °F 77% 29.67 in 10.0 mi Calm Calm - N/A   Mostly Cloudy
11:00 PM 55.4 °F 48.2 °F 77% 29.67 in 10.0 mi Calm Calm - N/A   Mostly Cloudy
11:25 PM 53.6 °F 48.2 °F 82% 29.67 in 10.0 mi Calm Calm - N/A   Mostly Cloudy
11:53 PM 52.0 °F 48.0 °F 86% 29.66 in 10.0 mi NNW 3.5 mph - N/A   Scattered Clouds